sat.trackr.live / text

‹ back to catalog

2024-110A

NORAD 60012 · 2024-110A

PAYLOAD ACTIVE UNKNOWN

§ Identity

Operator
Country
PRC
Launch date
2024-06-06
Launch site
JSC
Launch vehicle
Mass (kg)
RCS (m²)

External: N2YO · Heavens-Above · Gunter

§ Orbital elements

Epoch: 2026-05-25T05:51:20.959776Z

Period
95.18 min
Inclination
97.5682°
Eccentricity
0.0007895
Mean motion
15.12964727 rev/d
Perigee alt
521.7 km
Apogee alt
532.6 km
Semi-major
6,905.3 km
B*
3.3582e-4
RAAN
237.0917°
Arg perigee
345.0103°
Mean anomaly
15.0892°
Rev number
10,844

§ Raw data

2024-110A1 60012U 24110A   26145.24399259  .00005861  00000+0  33582-3 0  99912 60012  97.5682 237.0917 0007895 345.0103  15.0892 15.12964727108448

JSON: /api/v1/satellites/60012 · /tle

For live sub-satellite position, see the globe view (requires WebGL).

§ Visibility from observer

Set your observer location to see the next 7 days of passes ≥ 10°. The values pass through the URL so the page stays shareable.

No JS? Fill the form by hand. The geolocation button needs JavaScript.